Year,Month,Day,Hour,Minute,Value (Times are PST for windgust in km/hr)
2020,08,06,00,00,16.10
2020,08,06,00,01,8.10
2020,08,06,00,02,9.60
2020,08,06,00,03,8.10
2020,08,06,00,04,9.60
2020,08,06,00,05,8.10
2020,08,06,00,06,11.30
2020,08,06,00,07,12.90
2020,08,06,00,08,19.30
2020,08,06,00,09,16.10
2020,08,06,00,10,20.90
2020,08,06,00,11,19.30
2020,08,06,00,12,16.10
2020,08,06,00,13,16.10
2020,08,06,00,14,9.60
2020,08,06,00,15,16.10
2020,08,06,00,16,11.30
2020,08,06,00,17,9.60
2020,08,06,00,18,14.50
2020,08,06,00,19,12.90
2020,08,06,00,20,9.60
2020,08,06,00,21,17.70
2020,08,06,00,22,9.60
2020,08,06,00,23,17.70
2020,08,06,00,24,11.30
2020,08,06,00,25,8.10
2020,08,06,00,26,6.40
2020,08,06,00,27,17.70
2020,08,06,00,28,11.30
2020,08,06,00,29,6.40
2020,08,06,00,30,11.30
2020,08,06,00,31,6.40
2020,08,06,00,32,8.10
2020,08,06,00,33,6.40
2020,08,06,00,34,8.10
2020,08,06,00,35,8.10
2020,08,06,00,36,9.60
2020,08,06,00,37,8.10
2020,08,06,00,38,6.40
2020,08,06,00,39,8.10
2020,08,06,00,40,16.10
2020,08,06,00,41,8.10
2020,08,06,00,42,16.10
2020,08,06,00,43,11.30
2020,08,06,00,44,8.10
2020,08,06,00,45,8.10
2020,08,06,00,46,6.40
2020,08,06,00,47,6.40
2020,08,06,00,48,4.80
2020,08,06,00,49,8.10
2020,08,06,00,50,14.50
2020,08,06,00,51,8.10
2020,08,06,00,52,8.10
2020,08,06,00,53,17.70
2020,08,06,00,54,11.30
2020,08,06,00,55,8.10
2020,08,06,00,56,12.90
2020,08,06,00,57,9.60
2020,08,06,00,58,11.30
2020,08,06,00,59,8.10
2020,08,06,01,00,9.60
2020,08,06,01,01,14.50
2020,08,06,01,02,14.50
2020,08,06,01,03,16.10
2020,08,06,01,04,14.50
2020,08,06,01,05,11.30
2020,08,06,01,06,12.90
2020,08,06,01,07,8.10
2020,08,06,01,08,14.50
2020,08,06,01,09,9.60
2020,08,06,01,10,12.90
2020,08,06,01,11,14.50
2020,08,06,01,12,20.90
2020,08,06,01,13,14.50
2020,08,06,01,14,11.30
2020,08,06,01,15,14.50
2020,08,06,01,16,16.10
2020,08,06,01,17,11.30
2020,08,06,01,18,9.60
2020,08,06,01,19,11.30
2020,08,06,01,20,12.90
2020,08,06,01,21,8.10
2020,08,06,01,22,9.60
2020,08,06,01,23,11.30
2020,08,06,01,24,6.40
2020,08,06,01,25,8.10
2020,08,06,01,26,9.60
2020,08,06,01,27,6.40
2020,08,06,01,28,8.10
2020,08,06,01,29,6.40
2020,08,06,01,30,9.60
2020,08,06,01,31,6.40
2020,08,06,01,32,6.40
2020,08,06,01,33,6.40
2020,08,06,01,34,12.90
2020,08,06,01,35,9.60
2020,08,06,01,36,9.60
2020,08,06,01,37,6.40
2020,08,06,01,38,9.60
2020,08,06,01,39,14.50
2020,08,06,01,40,11.30
2020,08,06,01,41,16.10
2020,08,06,01,42,16.10
2020,08,06,01,43,8.10
2020,08,06,01,44,12.90
2020,08,06,01,45,11.30
2020,08,06,01,46,16.10
2020,08,06,01,47,14.50
2020,08,06,01,48,17.70
2020,08,06,01,49,16.10
2020,08,06,01,50,20.90
2020,08,06,01,51,25.70
2020,08,06,01,52,9.60
2020,08,06,01,53,9.60
2020,08,06,01,54,11.30
2020,08,06,01,55,17.70
2020,08,06,01,56,16.10
2020,08,06,01,57,17.70
2020,08,06,01,58,12.90
2020,08,06,01,59,17.70
2020,08,06,02,00,16.10
2020,08,06,02,01,8.10
2020,08,06,02,02,16.10
2020,08,06,02,03,12.90
2020,08,06,02,04,14.50
2020,08,06,02,05,9.60
2020,08,06,02,06,14.50
2020,08,06,02,07,16.10
2020,08,06,02,08,9.60
2020,08,06,02,09,11.30
2020,08,06,02,10,11.30
2020,08,06,02,11,16.10
2020,08,06,02,12,12.90
2020,08,06,02,13,16.10
2020,08,06,02,14,19.30
2020,08,06,02,15,16.10
2020,08,06,02,16,17.70
2020,08,06,02,17,16.10
2020,08,06,02,18,16.10
2020,08,06,02,19,14.50
2020,08,06,02,20,9.60
2020,08,06,02,21,8.10
2020,08,06,02,22,14.50
2020,08,06,02,23,17.70
2020,08,06,02,24,11.30
2020,08,06,02,25,11.30
2020,08,06,02,26,8.10
2020,08,06,02,27,11.30
2020,08,06,02,28,8.10
2020,08,06,02,29,16.10
2020,08,06,02,30,17.70
2020,08,06,02,31,12.90
2020,08,06,02,32,11.30
2020,08,06,02,33,9.60
2020,08,06,02,34,9.60
2020,08,06,02,35,9.60
2020,08,06,02,36,12.90
2020,08,06,02,37,8.10
2020,08,06,02,38,8.10
2020,08,06,02,39,9.60
2020,08,06,02,40,14.50
2020,08,06,02,41,11.30
2020,08,06,02,42,9.60
2020,08,06,02,43,9.60
2020,08,06,02,44,12.90
2020,08,06,02,45,11.30
2020,08,06,02,46,11.30
2020,08,06,02,47,11.30
2020,08,06,02,48,6.40
2020,08,06,02,49,6.40
2020,08,06,02,50,6.40
2020,08,06,02,51,6.40
2020,08,06,02,52,8.10
2020,08,06,02,53,9.60
2020,08,06,02,54,9.60
2020,08,06,02,55,11.30
2020,08,06,02,56,11.30
2020,08,06,02,57,9.60
2020,08,06,02,58,17.70
2020,08,06,02,59,12.90
2020,08,06,03,00,9.60
2020,08,06,03,01,9.60
2020,08,06,03,02,16.10
2020,08,06,03,03,11.30
2020,08,06,03,04,11.30
2020,08,06,03,05,9.60
2020,08,06,03,06,11.30
2020,08,06,03,07,9.60
2020,08,06,03,08,8.10
2020,08,06,03,09,9.60
2020,08,06,03,10,14.50
2020,08,06,03,11,14.50
2020,08,06,03,12,8.10
2020,08,06,03,13,9.60
2020,08,06,03,14,12.90
2020,08,06,03,15,9.60
2020,08,06,03,16,9.60
2020,08,06,03,17,9.60
2020,08,06,03,18,12.90
2020,08,06,03,19,11.30
2020,08,06,03,20,11.30
2020,08,06,03,21,9.60
2020,08,06,03,22,9.60
2020,08,06,03,23,11.30
2020,08,06,03,24,12.90
2020,08,06,03,25,17.70
2020,08,06,03,26,14.50
2020,08,06,03,27,11.30
2020,08,06,03,28,11.30
2020,08,06,03,29,9.60
2020,08,06,03,30,16.10
2020,08,06,03,31,19.30
2020,08,06,03,32,14.50
2020,08,06,03,33,16.10
2020,08,06,03,34,14.50
2020,08,06,03,35,8.10
2020,08,06,03,36,11.30
2020,08,06,03,37,9.60
2020,08,06,03,38,6.40
2020,08,06,03,39,8.10
2020,08,06,03,40,4.80
2020,08,06,03,41,6.40
2020,08,06,03,42,11.30
2020,08,06,03,43,11.30
2020,08,06,03,44,8.10
2020,08,06,03,45,8.10
2020,08,06,03,46,8.10
2020,08,06,03,47,14.50
2020,08,06,03,48,11.30
2020,08,06,03,49,11.30
2020,08,06,03,50,9.60
2020,08,06,03,51,16.10
2020,08,06,03,52,16.10
2020,08,06,03,53,17.70
2020,08,06,03,54,19.30
2020,08,06,03,55,17.70
2020,08,06,03,56,16.10
2020,08,06,03,57,9.60
2020,08,06,03,58,14.50
2020,08,06,03,59,19.30
2020,08,06,04,00,16.10
2020,08,06,04,01,17.70
2020,08,06,04,02,11.30
2020,08,06,04,03,11.30
2020,08,06,04,04,8.10
2020,08,06,04,05,8.10
2020,08,06,04,06,8.10
2020,08,06,04,07,11.30
2020,08,06,04,08,19.30
2020,08,06,04,09,17.70
2020,08,06,04,10,11.30
2020,08,06,04,11,14.50
2020,08,06,04,12,19.30
2020,08,06,04,13,20.90
2020,08,06,04,14,16.10
2020,08,06,04,15,8.10
2020,08,06,04,16,11.30
2020,08,06,04,17,9.60
2020,08,06,04,18,11.30
2020,08,06,04,19,19.30
2020,08,06,04,20,16.10
2020,08,06,04,21,16.10
2020,08,06,04,22,16.10
2020,08,06,04,23,11.30
2020,08,06,04,24,12.90
2020,08,06,04,25,9.60
2020,08,06,04,26,12.90
2020,08,06,04,27,14.50
2020,08,06,04,28,14.50
2020,08,06,04,29,14.50
2020,08,06,04,30,12.90
2020,08,06,04,31,19.30
2020,08,06,04,32,17.70
2020,08,06,04,33,16.10
2020,08,06,04,34,16.10
2020,08,06,04,35,16.10
2020,08,06,04,36,11.30
2020,08,06,04,37,9.60
2020,08,06,04,38,11.30
2020,08,06,04,39,9.60
2020,08,06,04,40,14.50
2020,08,06,04,41,11.30
2020,08,06,04,42,8.10
2020,08,06,04,43,8.10
2020,08,06,04,44,6.40
2020,08,06,04,45,6.40
2020,08,06,04,46,6.40
2020,08,06,04,47,4.80
2020,08,06,04,48,11.30
2020,08,06,04,49,9.60
2020,08,06,04,50,8.10
2020,08,06,04,51,8.10
2020,08,06,04,52,8.10
2020,08,06,04,53,8.10
2020,08,06,04,54,8.10
2020,08,06,04,55,9.60
2020,08,06,04,56,6.40
2020,08,06,04,57,4.80
2020,08,06,04,58,4.80
2020,08,06,04,59,6.40
2020,08,06,05,00,8.10
2020,08,06,05,01,6.40
2020,08,06,05,02,6.40
2020,08,06,05,03,6.40
2020,08,06,05,04,6.40
2020,08,06,05,05,8.10
2020,08,06,05,06,6.40
2020,08,06,05,07,6.40
2020,08,06,05,08,6.40
2020,08,06,05,09,4.80
2020,08,06,05,10,6.40
2020,08,06,05,11,4.80
2020,08,06,05,12,6.40
2020,08,06,05,13,4.80
2020,08,06,05,14,8.10
2020,08,06,05,15,8.10
2020,08,06,05,16,4.80
2020,08,06,05,17,6.40
2020,08,06,05,18,8.10
2020,08,06,05,19,9.60
2020,08,06,05,20,8.10
2020,08,06,05,21,8.10
2020,08,06,05,22,8.10
2020,08,06,05,23,9.60
2020,08,06,05,24,6.40
2020,08,06,05,25,8.10
2020,08,06,05,26,9.60
2020,08,06,05,27,9.60
2020,08,06,05,28,8.10
2020,08,06,05,29,8.10
2020,08,06,05,30,9.60
2020,08,06,05,31,9.60
2020,08,06,05,32,9.60
2020,08,06,05,33,6.40
2020,08,06,05,34,8.10
2020,08,06,05,35,8.10
2020,08,06,05,36,9.60
2020,08,06,05,37,8.10
2020,08,06,05,38,14.50
2020,08,06,05,39,9.60
2020,08,06,05,40,12.90
2020,08,06,05,41,14.50
2020,08,06,05,42,9.60
2020,08,06,05,43,9.60
2020,08,06,05,44,8.10
2020,08,06,05,45,9.60
2020,08,06,05,46,6.40
2020,08,06,05,47,6.40
2020,08,06,05,48,6.40
2020,08,06,05,49,8.10
2020,08,06,05,50,11.30
2020,08,06,05,51,9.60
2020,08,06,05,52,9.60
2020,08,06,05,53,11.30
2020,08,06,05,54,6.40
2020,08,06,05,55,8.10
2020,08,06,05,56,8.10
2020,08,06,05,57,11.30
2020,08,06,05,58,9.60
2020,08,06,05,59,9.60
2020,08,06,06,00,8.10
2020,08,06,06,01,8.10
2020,08,06,06,02,9.60
2020,08,06,06,03,14.50
2020,08,06,06,04,16.10
2020,08,06,06,05,16.10
2020,08,06,06,06,8.10
2020,08,06,06,07,16.10
2020,08,06,06,08,19.30
2020,08,06,06,09,17.70
2020,08,06,06,10,17.70
2020,08,06,06,11,14.50
2020,08,06,06,12,24.20
2020,08,06,06,13,16.10
2020,08,06,06,14,11.30
2020,08,06,06,15,11.30
2020,08,06,06,16,16.10
2020,08,06,06,17,16.10
2020,08,06,06,18,16.10
2020,08,06,06,19,14.50
2020,08,06,06,20,17.70
2020,08,06,06,21,16.10
2020,08,06,06,22,9.60
2020,08,06,06,23,9.60
2020,08,06,06,24,12.90
2020,08,06,06,25,17.70
2020,08,06,06,26,22.50
2020,08,06,06,27,17.70
2020,08,06,06,28,11.30
2020,08,06,06,29,16.10
2020,08,06,06,30,14.50
2020,08,06,06,31,16.10
2020,08,06,06,32,19.30
2020,08,06,06,33,16.10
2020,08,06,06,34,11.30
2020,08,06,06,35,16.10
2020,08,06,06,36,11.30
2020,08,06,06,37,20.90
2020,08,06,06,38,11.30
2020,08,06,06,39,14.50
2020,08,06,06,40,11.30
2020,08,06,06,41,19.30
2020,08,06,06,42,8.10
2020,08,06,06,43,17.70
2020,08,06,06,44,11.30
2020,08,06,06,45,17.70
2020,08,06,06,46,16.10
2020,08,06,06,47,9.60
2020,08,06,06,48,11.30
2020,08,06,06,49,9.60
2020,08,06,06,50,12.90
2020,08,06,06,51,4.80
2020,08,06,06,52,9.60
2020,08,06,06,53,11.30
2020,08,06,06,54,11.30
2020,08,06,06,55,9.60
2020,08,06,06,56,16.10
2020,08,06,06,57,19.30
2020,08,06,06,58,17.70
2020,08,06,06,59,17.70
2020,08,06,07,00,17.70
2020,08,06,07,01,24.20
2020,08,06,07,02,17.70
2020,08,06,07,03,16.10
2020,08,06,07,04,14.50
2020,08,06,07,05,14.50
2020,08,06,07,06,14.50
2020,08,06,07,07,11.30
2020,08,06,07,08,16.10
2020,08,06,07,09,11.30
2020,08,06,07,10,16.10
2020,08,06,07,11,11.30
2020,08,06,07,12,22.50
2020,08,06,07,13,16.10
2020,08,06,07,14,11.30
2020,08,06,07,15,12.90
2020,08,06,07,16,11.30
2020,08,06,07,17,9.60
2020,08,06,07,18,14.50
2020,08,06,07,19,20.90
2020,08,06,07,20,9.60
2020,08,06,07,21,8.10
2020,08,06,07,22,6.40
2020,08,06,07,23,6.40
2020,08,06,07,24,11.30
2020,08,06,07,25,24.20
2020,08,06,07,26,22.50
2020,08,06,07,27,9.60
2020,08,06,07,28,6.40
2020,08,06,07,29,22.50
2020,08,06,07,30,19.30
2020,08,06,07,31,16.10
2020,08,06,07,32,14.50
2020,08,06,07,33,14.50
2020,08,06,07,34,11.30
2020,08,06,07,35,17.70
2020,08,06,07,36,19.30
2020,08,06,07,37,22.50
2020,08,06,07,38,19.30
2020,08,06,07,39,14.50
2020,08,06,07,40,16.10
2020,08,06,07,41,11.30
2020,08,06,07,42,22.50
2020,08,06,07,43,22.50
2020,08,06,07,44,17.70
2020,08,06,07,45,16.10
2020,08,06,07,46,16.10
2020,08,06,07,47,16.10
2020,08,06,07,48,22.50
2020,08,06,07,49,16.10
2020,08,06,07,50,8.10
2020,08,06,07,51,6.40
2020,08,06,07,52,9.60
2020,08,06,07,53,16.10
2020,08,06,07,54,19.30
2020,08,06,07,55,22.50
2020,08,06,07,56,19.30
2020,08,06,07,57,16.10
2020,08,06,07,58,17.70
2020,08,06,07,59,17.70
2020,08,06,08,00,12.90
2020,08,06,08,01,17.70
2020,08,06,08,02,11.30
2020,08,06,08,03,16.10
2020,08,06,08,04,12.90
2020,08,06,08,05,11.30
2020,08,06,08,06,16.10
2020,08,06,08,07,9.60
2020,08,06,08,08,6.40
2020,08,06,08,09,9.60
2020,08,06,08,10,11.30
2020,08,06,08,11,14.50
2020,08,06,08,12,9.60
2020,08,06,08,13,8.10
2020,08,06,08,14,3.20
2020,08,06,08,15,6.40
2020,08,06,08,16,4.80
2020,08,06,08,19,14.50
2020,08,06,08,20,16.10
2020,08,06,08,21,9.60
2020,08,06,08,22,4.80
2020,08,06,08,23,6.40
2020,08,06,08,24,6.40
2020,08,06,08,25,14.50
2020,08,06,08,26,11.30
2020,08,06,08,27,17.70
2020,08,06,08,28,14.50
2020,08,06,08,29,12.90
2020,08,06,08,30,6.40
2020,08,06,08,31,6.40
2020,08,06,08,32,12.90
2020,08,06,08,33,17.70
2020,08,06,08,34,14.50
2020,08,06,08,35,14.50
2020,08,06,08,36,17.70
2020,08,06,08,37,16.10
2020,08,06,08,38,17.70
2020,08,06,08,39,14.50
2020,08,06,08,40,19.30
2020,08,06,08,41,9.60
2020,08,06,08,42,8.10
2020,08,06,08,43,12.90
2020,08,06,08,44,17.70
2020,08,06,08,45,19.30
2020,08,06,08,46,14.50
2020,08,06,08,47,19.30
2020,08,06,08,48,17.70
2020,08,06,08,49,20.90
2020,08,06,08,50,24.20
2020,08,06,08,51,20.90
2020,08,06,08,52,19.30
2020,08,06,08,53,22.50
2020,08,06,08,54,24.20
2020,08,06,08,55,20.90
2020,08,06,08,56,9.60
2020,08,06,08,57,20.90
2020,08,06,08,58,19.30
2020,08,06,08,59,20.90
2020,08,06,09,00,19.30
2020,08,06,09,01,17.70
2020,08,06,09,02,19.30
2020,08,06,09,03,14.50
2020,08,06,09,04,16.10
2020,08,06,09,05,22.50
2020,08,06,09,06,17.70
2020,08,06,09,07,17.70
2020,08,06,09,08,25.70
2020,08,06,09,09,20.90
2020,08,06,09,10,14.50
2020,08,06,09,11,19.30
2020,08,06,09,12,20.90
2020,08,06,09,13,19.30
2020,08,06,09,14,27.40
2020,08,06,09,15,27.40
2020,08,06,09,16,16.10
2020,08,06,09,17,24.20
2020,08,06,09,18,19.30
2020,08,06,09,19,11.30
2020,08,06,09,20,14.50
2020,08,06,09,21,19.30
2020,08,06,09,22,20.90
2020,08,06,09,23,24.20
2020,08,06,09,24,22.50
2020,08,06,09,25,24.20
2020,08,06,09,26,17.70
2020,08,06,09,27,22.50
2020,08,06,09,28,25.70
2020,08,06,09,29,32.20
2020,08,06,09,30,29.00
2020,08,06,09,31,32.20
2020,08,06,09,32,25.70
2020,08,06,09,33,24.20
2020,08,06,09,34,29.00
2020,08,06,09,35,24.20
2020,08,06,09,36,20.90
2020,08,06,09,37,17.70
2020,08,06,09,38,29.00
2020,08,06,09,39,32.20
2020,08,06,09,40,30.60
2020,08,06,09,41,16.10
2020,08,06,09,42,20.90
2020,08,06,09,43,19.30
2020,08,06,09,44,22.50
2020,08,06,09,45,20.90
2020,08,06,09,46,30.60
2020,08,06,09,47,27.40
2020,08,06,09,48,32.20
2020,08,06,09,49,30.60
2020,08,06,09,50,9.60
2020,08,06,09,51,37.00
2020,08,06,09,52,22.50
2020,08,06,09,53,30.60
2020,08,06,09,54,19.30
2020,08,06,09,55,30.60
2020,08,06,09,56,20.90
2020,08,06,09,57,30.60
2020,08,06,09,58,27.40
2020,08,06,09,59,22.50
2020,08,06,10,00,17.70
2020,08,06,10,01,32.20
2020,08,06,10,02,30.60
2020,08,06,10,03,33.80
2020,08,06,10,04,30.60
2020,08,06,10,05,25.70
2020,08,06,10,06,29.00
2020,08,06,10,07,41.80
2020,08,06,10,08,30.60
2020,08,06,10,09,25.70
2020,08,06,10,10,33.80
2020,08,06,10,11,32.20
2020,08,06,10,12,35.40
2020,08,06,10,13,27.40
2020,08,06,10,14,29.00
2020,08,06,10,15,33.80
2020,08,06,10,16,35.40
2020,08,06,10,17,40.20
2020,08,06,10,18,37.00
2020,08,06,10,19,38.60
2020,08,06,10,20,35.40
2020,08,06,10,21,17.70
2020,08,06,10,22,9.60
2020,08,06,10,23,24.20
2020,08,06,10,24,22.50
2020,08,06,10,25,20.90
2020,08,06,10,26,24.20
2020,08,06,10,27,35.40
2020,08,06,10,28,40.20
2020,08,06,10,29,45.10
2020,08,06,10,30,24.20
2020,08,06,10,31,33.80
2020,08,06,10,32,24.20
2020,08,06,10,33,38.60
2020,08,06,10,34,24.20
2020,08,06,10,35,11.30
2020,08,06,10,36,27.40
2020,08,06,10,37,29.00
2020,08,06,10,38,20.90
2020,08,06,10,39,27.40
2020,08,06,10,40,20.90
2020,08,06,10,41,27.40
2020,08,06,10,42,24.20
2020,08,06,10,43,32.20
2020,08,06,10,44,40.20
2020,08,06,10,45,27.40
2020,08,06,10,46,38.60
2020,08,06,10,47,30.60
2020,08,06,10,48,32.20
2020,08,06,10,49,29.00
2020,08,06,10,50,33.80
2020,08,06,10,51,29.00
2020,08,06,10,52,30.60
2020,08,06,10,53,37.00
2020,08,06,10,54,38.60
2020,08,06,10,55,29.00
2020,08,06,10,56,20.90
2020,08,06,10,57,20.90
2020,08,06,10,58,24.20
2020,08,06,10,59,38.60
2020,08,06,11,00,29.00
2020,08,06,11,01,33.80
2020,08,06,11,02,32.20
2020,08,06,11,03,22.50
2020,08,06,11,04,27.40
2020,08,06,11,05,29.00
2020,08,06,11,06,33.80
2020,08,06,11,07,17.70
2020,08,06,11,08,16.10
2020,08,06,11,09,43.50
2020,08,06,11,10,29.00
2020,08,06,11,11,29.00
2020,08,06,11,12,33.80
2020,08,06,11,13,43.50
2020,08,06,11,14,32.20
2020,08,06,11,15,30.60
2020,08,06,11,16,27.40
2020,08,06,11,17,32.20
2020,08,06,11,18,43.50
2020,08,06,11,19,40.20
2020,08,06,11,20,32.20
2020,08,06,11,21,40.20
2020,08,06,11,22,33.80
2020,08,06,11,23,32.20
2020,08,06,11,24,24.20
2020,08,06,11,25,35.40
2020,08,06,11,26,27.40
2020,08,06,11,27,14.50
2020,08,06,11,28,32.20
2020,08,06,11,29,29.00
2020,08,06,11,30,25.70
2020,08,06,11,31,30.60
2020,08,06,11,32,32.20
2020,08,06,11,33,32.20
2020,08,06,11,34,35.40
2020,08,06,11,35,38.60
2020,08,06,11,36,30.60
2020,08,06,11,37,24.20
2020,08,06,11,38,35.40
2020,08,06,11,39,32.20
2020,08,06,11,40,30.60
2020,08,06,11,41,32.20
2020,08,06,11,42,43.50
2020,08,06,11,43,24.20
2020,08,06,11,44,33.80
2020,08,06,11,45,37.00
2020,08,06,11,46,30.60
2020,08,06,11,47,19.30
2020,08,06,11,48,32.20
2020,08,06,11,49,29.00
2020,08,06,11,50,32.20
2020,08,06,11,51,33.80
2020,08,06,11,52,32.20
2020,08,06,11,53,20.90
2020,08,06,11,54,17.70
2020,08,06,11,55,38.60
2020,08,06,11,56,30.60
2020,08,06,11,57,32.20
2020,08,06,11,58,32.20
2020,08,06,11,59,25.70
2020,08,06,12,00,22.50
2020,08,06,12,01,27.40
2020,08,06,12,02,24.20
2020,08,06,12,03,32.20
2020,08,06,12,04,17.70
2020,08,06,12,05,27.40
2020,08,06,12,06,32.20
2020,08,06,12,07,17.70
2020,08,06,12,08,30.60
2020,08,06,12,09,35.40
2020,08,06,12,10,30.60
2020,08,06,12,11,22.50
2020,08,06,12,12,25.70
2020,08,06,12,13,45.10
2020,08,06,12,14,35.40
2020,08,06,12,15,41.80
2020,08,06,12,16,29.00
2020,08,06,12,17,30.60
2020,08,06,12,18,35.40
2020,08,06,12,19,30.60
2020,08,06,12,20,33.80
2020,08,06,12,21,25.70
2020,08,06,12,22,29.00
2020,08,06,12,23,29.00
2020,08,06,12,24,29.00
2020,08,06,12,25,27.40
2020,08,06,12,26,35.40
2020,08,06,12,27,35.40
2020,08,06,12,28,30.60
2020,08,06,12,29,27.40
2020,08,06,12,30,40.20
2020,08,06,12,31,33.80
2020,08,06,12,32,24.20
2020,08,06,12,33,25.70
2020,08,06,12,34,33.80
2020,08,06,12,35,35.40
2020,08,06,12,36,33.80
2020,08,06,12,37,30.60
2020,08,06,12,38,41.80
2020,08,06,12,39,30.60
2020,08,06,12,40,29.00
2020,08,06,12,41,30.60
2020,08,06,12,42,33.80
2020,08,06,12,43,30.60
2020,08,06,12,44,22.50
2020,08,06,12,45,45.10
2020,08,06,12,46,38.60
2020,08,06,12,47,25.70
2020,08,06,12,48,27.40
2020,08,06,12,49,29.00
2020,08,06,12,50,41.80
2020,08,06,12,51,37.00
2020,08,06,12,52,30.60
2020,08,06,12,53,27.40
2020,08,06,12,54,29.00
2020,08,06,12,55,41.80
2020,08,06,12,56,27.40
2020,08,06,12,57,30.60
2020,08,06,12,58,45.10
2020,08,06,12,59,37.00
2020,08,06,13,00,38.60
2020,08,06,13,01,37.00
2020,08,06,13,02,19.30
2020,08,06,13,03,29.00
2020,08,06,13,04,40.20
2020,08,06,13,05,33.80
2020,08,06,13,06,29.00
2020,08,06,13,07,48.30
2020,08,06,13,08,25.70
2020,08,06,13,09,37.00
2020,08,06,13,10,32.20
2020,08,06,13,11,27.40
2020,08,06,13,12,35.40
2020,08,06,13,13,22.50
2020,08,06,13,14,17.70
2020,08,06,13,15,27.40
2020,08,06,13,16,33.80
2020,08,06,13,17,29.00
2020,08,06,13,18,20.90
2020,08,06,13,19,30.60
2020,08,06,13,20,33.80
2020,08,06,13,21,32.20
2020,08,06,13,22,29.00
2020,08,06,13,23,14.50
2020,08,06,13,24,27.40
2020,08,06,13,25,41.80
2020,08,06,13,26,27.40
2020,08,06,13,27,20.90
2020,08,06,13,28,41.80
2020,08,06,13,29,30.60
2020,08,06,13,30,32.20
2020,08,06,13,31,14.50
2020,08,06,13,32,38.60
2020,08,06,13,33,30.60
2020,08,06,13,34,35.40
2020,08,06,13,35,41.80
2020,08,06,13,36,29.00
2020,08,06,13,37,37.00
2020,08,06,13,38,25.70
2020,08,06,13,39,19.30
2020,08,06,13,40,38.60
2020,08,06,13,41,30.60
2020,08,06,13,42,38.60
2020,08,06,13,43,27.40
2020,08,06,13,44,27.40
2020,08,06,13,45,33.80
2020,08,06,13,46,19.30
2020,08,06,13,47,30.60
2020,08,06,13,48,38.60
2020,08,06,13,49,43.50
2020,08,06,13,50,40.20
2020,08,06,13,51,30.60
2020,08,06,13,52,20.90
2020,08,06,13,53,32.20
2020,08,06,13,54,48.30
2020,08,06,13,55,40.20
2020,08,06,13,56,30.60
2020,08,06,13,57,19.30
2020,08,06,13,58,38.60
2020,08,06,13,59,25.70
2020,08,06,14,00,24.20
2020,08,06,14,01,25.70
2020,08,06,14,02,29.00
2020,08,06,14,03,32.20
2020,08,06,14,04,29.00
2020,08,06,14,05,24.20
2020,08,06,14,06,20.90
2020,08,06,14,07,45.10
2020,08,06,14,08,32.20
2020,08,06,14,09,43.50
2020,08,06,14,10,38.60
2020,08,06,14,11,30.60
2020,08,06,14,12,25.70
2020,08,06,14,13,27.40
2020,08,06,14,14,35.40
2020,08,06,14,15,29.00
2020,08,06,14,16,37.00
2020,08,06,14,17,29.00
2020,08,06,14,18,22.50
2020,08,06,14,19,29.00
2020,08,06,14,20,27.40
2020,08,06,14,21,46.70
2020,08,06,14,22,46.70
2020,08,06,14,23,29.00
2020,08,06,14,24,32.20
2020,08,06,14,25,35.40
2020,08,06,14,26,45.10
2020,08,06,14,27,27.40
2020,08,06,14,28,30.60
2020,08,06,14,29,29.00
2020,08,06,14,30,35.40
2020,08,06,14,31,35.40
2020,08,06,14,32,38.60
2020,08,06,14,33,35.40
2020,08,06,14,34,29.00
2020,08,06,14,35,38.60
2020,08,06,14,36,24.20
2020,08,06,14,37,45.10
2020,08,06,14,38,51.50
2020,08,06,14,39,25.70
2020,08,06,14,40,27.40
2020,08,06,14,41,37.00
2020,08,06,14,42,45.10
2020,08,06,14,43,40.20
2020,08,06,14,44,48.30
2020,08,06,14,45,35.40
2020,08,06,14,46,45.10
2020,08,06,14,47,32.20
2020,08,06,14,48,35.40
2020,08,06,14,49,22.50
2020,08,06,14,50,17.70
2020,08,06,14,51,20.90
2020,08,06,14,52,29.00
2020,08,06,14,53,45.10
2020,08,06,14,54,24.20
2020,08,06,14,55,27.40
2020,08,06,14,56,46.70
2020,08,06,14,57,32.20
2020,08,06,14,58,25.70
2020,08,06,14,59,30.60
2020,08,06,15,00,35.40
2020,08,06,15,01,41.80
2020,08,06,15,02,43.50
2020,08,06,15,03,29.00
2020,08,06,15,04,48.30
2020,08,06,15,05,30.60
2020,08,06,15,06,30.60
2020,08,06,15,07,38.60
2020,08,06,15,08,33.80
2020,08,06,15,09,46.70
2020,08,06,15,10,30.60
2020,08,06,15,11,32.20
2020,08,06,15,12,27.40
2020,08,06,15,13,35.40
2020,08,06,15,14,40.20
2020,08,06,15,15,38.60
2020,08,06,15,16,41.80
2020,08,06,15,17,27.40
2020,08,06,15,18,35.40
2020,08,06,15,19,45.10
2020,08,06,15,20,43.50
2020,08,06,15,21,43.50
2020,08,06,15,22,37.00
2020,08,06,15,23,33.80
2020,08,06,15,24,35.40
2020,08,06,15,25,25.70
2020,08,06,15,26,30.60
2020,08,06,15,27,30.60
2020,08,06,15,28,35.40
2020,08,06,15,29,35.40
2020,08,06,15,30,30.60
2020,08,06,15,31,33.80
2020,08,06,15,32,40.20
2020,08,06,15,33,33.80
2020,08,06,15,34,54.70
2020,08,06,15,35,37.00
2020,08,06,15,36,38.60
2020,08,06,15,37,49.90
2020,08,06,15,38,29.00
2020,08,06,15,39,32.20
2020,08,06,15,40,32.20
2020,08,06,15,41,25.70
2020,08,06,15,42,37.00
2020,08,06,15,43,35.40
2020,08,06,15,44,35.40
2020,08,06,15,45,45.10
2020,08,06,15,46,24.20
2020,08,06,15,47,41.80
2020,08,06,15,48,43.50
2020,08,06,15,49,29.00
2020,08,06,15,50,27.40
2020,08,06,15,51,35.40
2020,08,06,15,52,38.60
2020,08,06,15,53,32.20
2020,08,06,15,54,32.20
2020,08,06,15,55,24.20
2020,08,06,15,56,32.20
2020,08,06,15,57,22.50
2020,08,06,15,58,35.40
2020,08,06,15,59,40.20
2020,08,06,16,00,40.20
2020,08,06,16,01,25.70
2020,08,06,16,02,27.40
2020,08,06,16,03,48.30
2020,08,06,16,04,38.60
2020,08,06,16,05,27.40
2020,08,06,16,06,37.00
2020,08,06,16,07,35.40
2020,08,06,16,08,20.90
2020,08,06,16,09,29.00
2020,08,06,16,10,24.20
2020,08,06,16,11,29.00
2020,08,06,16,12,32.20
2020,08,06,16,13,29.00
2020,08,06,16,14,32.20
2020,08,06,16,15,19.30
2020,08,06,16,16,20.90
2020,08,06,16,17,35.40
2020,08,06,16,18,29.00
2020,08,06,16,19,45.10
2020,08,06,16,20,32.20
2020,08,06,16,21,33.80
2020,08,06,16,22,27.40
2020,08,06,16,23,24.20
2020,08,06,16,24,24.20
2020,08,06,16,25,27.40
2020,08,06,16,26,30.60
2020,08,06,16,27,35.40
2020,08,06,16,28,33.80
2020,08,06,16,29,33.80
2020,08,06,16,30,25.70
2020,08,06,16,31,24.20
2020,08,06,16,32,20.90
2020,08,06,16,33,32.20
2020,08,06,16,34,29.00
2020,08,06,16,35,30.60
2020,08,06,16,36,17.70
2020,08,06,16,37,32.20
2020,08,06,16,38,32.20
2020,08,06,16,39,14.50
2020,08,06,16,40,20.90
2020,08,06,16,41,24.20
2020,08,06,16,42,25.70
2020,08,06,16,43,27.40
2020,08,06,16,44,29.00
2020,08,06,16,45,35.40
2020,08,06,16,46,30.60
2020,08,06,16,47,43.50
2020,08,06,16,48,32.20
2020,08,06,16,49,38.60
2020,08,06,16,50,33.80
2020,08,06,16,51,30.60
2020,08,06,16,52,33.80
2020,08,06,16,53,20.90
2020,08,06,16,54,30.60
2020,08,06,16,55,32.20
2020,08,06,16,56,35.40
2020,08,06,16,57,25.70
2020,08,06,16,58,33.80
2020,08,06,16,59,22.50
2020,08,06,17,00,19.30
2020,08,06,17,01,22.50
2020,08,06,17,02,29.00
2020,08,06,17,03,32.20
2020,08,06,17,04,37.00
2020,08,06,17,05,33.80
2020,08,06,17,06,35.40
2020,08,06,17,07,37.00
2020,08,06,17,08,27.40
2020,08,06,17,09,33.80
2020,08,06,17,10,19.30
2020,08,06,17,11,29.00
2020,08,06,17,12,22.50
2020,08,06,17,13,11.30
2020,08,06,17,14,27.40
2020,08,06,17,15,25.70
2020,08,06,17,16,25.70
2020,08,06,17,17,30.60
2020,08,06,17,18,17.70
2020,08,06,17,19,22.50
2020,08,06,17,20,29.00
2020,08,06,17,21,27.40
2020,08,06,17,22,24.20
2020,08,06,17,23,27.40
2020,08,06,17,24,32.20
2020,08,06,17,25,35.40
2020,08,06,17,26,33.80
2020,08,06,17,27,35.40
2020,08,06,17,28,27.40
2020,08,06,17,29,20.90
2020,08,06,17,30,32.20
2020,08,06,17,31,27.40